Location: Passau
(48.5830°N, 13.4830°E)
Time: 05:38:31
(UTC+02:00)

Vanguard 1 - Pass Details

Date: 29 July 2021
Orbit: 652 x 3831 km, 34.3° (Epoch: 16 September)

Event Time Altitude Azimuth Distance (km) Brightness Sun altitude
Rises 18:47:40 0° 263° (W) 5,092 15.2 17.9°
Reaches altitude 10° 18:52:20 10° 244° (WSW) 4,640 14.6 17.1°
Maximum altitude 18:59:54 17° 210° (SSW) 4,837 13.9 15.9°
Drops below altitude 10° 19:09:44 10° 178° (S) 6,220 14.0 14.3°
Sets 19:18:09 0° 162° (SSE) 7,702 14.3 12.9°
